Location: Sommers-Bausch Observatory
(40.0037°N, 105.2635°W)
Time: 06:58:12
(UTC-06:00)

Daily predictions for brighter satellites

Satellite Brightness Start Highest point End
(mag) Time Altitude Azimuth Time Altitude Azimuth Time Altitude Azimuth
Cosmos 2285 Rocket 4.4 20:45:01 10° N 20:51:10 51° ENE 20:57:19 10° SE
Okean 2 4.0 20:47:36 10° SSE 20:51:29 38° E 20:55:23 10° NNE
ALOS 2.5 20:48:19 10° S 20:52:59 76° WSW 20:57:40 10° NNW
Cosmos 158 Rocket 4.1 20:49:08 10° SSW 20:54:11 81° WNW 20:59:25 10° NNE
SeaSat 1 3.5 20:50:49 10° ESE 20:55:12 33° NE 20:59:36 10° N
Cosmos 2233 Rocket 4.2 20:49:24 10° N 20:55:40 77° W 21:01:51 10° S
YAOGAN 11 4.2 20:54:43 10° SSE 20:59:06 83° WSW 21:03:26 10° NNW
Cosmos 2058 Rocket 3.2 20:54:58 10° N 20:59:17 54° E 21:03:32 10° SSE
APEX 4.4 20:59:18 10° N 21:03:03 38° ENE 21:07:37 11° SE
Cosmos 2098 Rocket 3.9 21:00:33 10° NNW 21:03:43 42° W 21:07:33 10° SSW
Cosmos 1464 Rocket 4.1 20:58:18 10° N 21:04:21 57° E 21:10:23 10° SSE
Meteor 1-19 Rocket 4.3 21:01:28 10° S 21:07:06 87° WNW 21:12:43 10° N
Cosmos 1461 4.2 21:03:56 10° N 21:07:41 28° NE 21:11:08 11° ESE
Meteor 2-4 Rocket 3.8 21:02:37 10° S 21:08:24 71° E 21:14:19 10° NNE
CZ-2C R/B 0.8 21:07:04 10° S 21:09:21 62° W 21:11:39 10° NNW
deb Chang Zheng 4 3.5 21:05:38 10° NNE 21:10:03 76° ESE 21:14:25 10° S
Cosmos 2251 Rocket 3.9 21:05:44 10° SSW 21:11:01 71° WNW 21:16:23 10° NNE
Cosmos 2333 Rocket 3.9 21:06:27 10° SW 21:11:40 38° WNW 21:16:55 10° N
PSLV R/B 4.4 21:09:29 13° SE 21:11:43 27° ENE 21:14:25 10° NNE
Cosmos 2297 3.8 21:09:16 10° NNW 21:14:59 84° WSW 21:20:43 10° SSE
H-2A R/B 4.1 21:11:51 10° SSW 21:15:34 40° W 21:19:19 10° NNW
ATLAS 3B R/B 4.2 21:16:52 10° SE 21:21:40 19° ESE 21:26:35 10° ENE
Cosmos 2034 Rocket 4.2 21:15:59 10° N 21:22:17 60° E 21:28:23 11° SSE
ERS-1 Rocket 3.2 21:18:19 10° S 21:23:18 70° WSW 21:28:20 10° NNW
Envisat 3.1 21:19:51 11° SSE 21:24:38 62° ENE 21:29:39 10° N
YAOGAN 6 4.1 21:24:55 16° ESE 21:26:55 24° ENE 21:29:58 10° NNE
Cosmos 1110 Rocket 4.5 21:22:00 10° NNW 21:27:14 61° WSW 21:32:23 10° S
H-2A R/B 2.4 21:26:03 10° S 21:30:13 65° WSW 21:34:32 10° NNW
Abrixas rocket 2.3 21:31:07 10° WNW 21:34:33 79° NNE 21:36:37 22° ESE
USA 234 3.5 21:30:35 14° ESE 21:36:16 63° NE 21:42:44 10° NW
ATLAS CENTAUR R/B 4.1 21:35:04 10° WSW 21:39:22 28° NW 21:43:43 10° NNE
Cosmos 1626 Rocket 3.5 21:35:11 10° S 21:39:36 70° E 21:44:01 10° NNE
MetOp-A 4.3 21:37:42 17° SSE 21:41:45 61° ENE 21:47:03 10° N
PSLV R/B 3.5 21:50:19 10° SW 21:53:46 50° SSE 21:55:24 27° E
Cosmos 2228 3.7 21:50:12 10° NNW 21:54:30 53° W 21:58:26 12° S
Aureole 2 Rocket 3.7 21:51:38 10° SW 21:55:30 47° WNW 21:59:03 10° N
Atlas Centaur 2 3.6 21:48:39 10° SW 21:55:38 36° SSE 22:00:55 18° ESE
Cosmos 2278 Rocket 4.5 21:51:53 10° WNW 21:55:41 19° W 21:59:30 10° SW
Cosmos 1939 Rocket 4.0 21:54:30 11° S 21:58:17 41° W 22:02:14 10° NNW
H-2A R/B 3.3 21:59:58 19° E 22:01:57 25° ENE 22:05:58 10° NNE
CZ-4 R/B 4.1 21:58:50 10° NNE 22:03:43 54° E 22:06:34 24° S
COSMOS 2455 2.8 21:59:58 10° SSW 22:05:54 65° ESE 22:11:52 10° NE
Cosmos 1666 4.2 22:03:07 10° NNW 22:06:41 35° W 22:09:52 12° SSW
Milstar 3 Cent rocket 4.0 22:03:23 10° WSW 22:06:45 15° SSW 22:08:18 13° S
SPOT 5 3.3 22:06:11 17° S 22:09:21 51° W 22:13:36 10° NNW
SPOT 1/Viking Rocket 3.5 22:07:22 27° SSE 22:10:15 79° ENE 22:15:25 10° N
Cosmos 2369 Rocket 3.0 22:05:17 10° N 22:10:33 38° ENE 22:13:08 25° ESE
Lacrosse 5 rocket 4.3 22:10:28 10° WNW 22:13:15 18° NNW 22:16:08 10° NNE
ARGOS 3.2 22:10:54 29° SSE 22:13:41 68° ENE 22:19:05 10° N
SL-16 R/B 4.2 22:10:19 10° WSW 22:15:10 29° WNW 22:20:03 10° N
Geosat 4.0 22:14:22 10° NNE 22:19:21 60° ESE 22:22:14 25° S
Cosmos 1190 Rocket 4.4 22:17:39 33° SSE 22:19:21 44° ESE 22:24:24 10° NNE
Landsat 7 4.3 22:18:56 34° ESE 22:20:29 47° ENE 22:25:03 10° N
NOAA 11 4.1 22:19:15 32° SSE 22:21:48 73° ENE 22:27:12 10° N
NAVSTAR 52 R/B(PAM-D 4.3 22:21:19 10° W 22:25:13 62° SSW 22:25:13 62° SSW
Meteor 1-22 Rocket 4.5 22:22:30 10° N 22:27:56 54° ENE 22:29:58 36° SE
BREEZE M DEB (TANK) 2.4 22:27:50 10° WNW 22:29:18 39° WNW 22:29:18 39° WNW
Lacrosse 4 Rocket 2.6 22:31:19 26° ENE 22:31:19 26° ENE 22:33:40 10° NE
Cosmos 1758 Rocket 3.9 22:30:16 44° ESE 22:30:44 46° E 22:34:56 10° NNE
SeaSat 1 3.7 22:29:57 19° SSW 22:32:40 32° WSW 22:37:06 10° NW
SL-08 RB Rocket 3.6 22:33:23 45° SSE 22:34:49 89° WSW 22:39:23 10° NNW
CARTOSAT-1 4.0 22:34:42 42° E 22:35:22 46° ENE 22:39:31 10° N
Cosmos 1515 4.2 22:33:52 31° SW 22:35:27 56° W 22:39:17 10° N
Terra 2.3 22:35:13 40° ESE 22:36:17 47° ENE 22:40:51 10° N
CZ-4B R/B 4.4 22:33:29 10° N 22:38:19 48° WNW 22:43:17 10° SW
Cosmos 1346 Rocket 2.6 22:38:37 66° ESE 22:38:45 67° E 22:42:39 10° NNE
Cosmos 1066 Rocket 4.2 22:39:23 29° S 22:42:25 87° W 22:48:14 10° N
Kosmos-1675 3.5 22:46:03 61° ESE 22:46:05 61° ESE 22:53:39 10° NE
Cosmos 1461 4.3 22:43:13 10° NW 22:46:49 27° WSW 22:47:38 25° SW
Cosmos 1825 Rocket 4.0 22:47:31 35° SSW 22:49:13 61° W 22:53:38 10° N
Cosmos 1900 4.4 22:56:40 56° SE 22:56:51 56° ESE 23:01:53 10° NE
Cosmos 1842 3.9 22:58:24 44° ENE 22:58:24 44° ENE 23:01:30 10° NNE
Meteor 1-21 4.2 23:01:20 48° S 23:03:04 83° E 23:08:55 10° N
Nadezhda 4 Rocket 4.4 23:05:54 42° ESE 23:06:58 46° E 23:12:58 10° NNE
Cosmos 407 Rocket 3.5 23:07:32 46° SSW 23:09:09 82° WNW 23:14:25 10° NNE
Cosmos 1943 3.6 23:05:16 20° SW 23:09:09 62° WNW 23:14:49 10° NNE
ATLAS 3B R/B 2.9 23:03:51 10° SSW 23:11:33 88° WNW 23:19:08 10° NNE
Cosmos 1766 3.6 23:14:00 10° NNW 23:17:41 63° WNW 23:17:41 63° WNW
USA 234 4.0 23:17:55 33° SSW 23:19:26 37° SW 23:25:27 10° WNW
Cosmos 1943 Rocket 2.4 23:17:30 10° NNW 23:22:58 57° ENE 23:23:46 52° E
CZ-4B R/B 4.3 23:24:16 11° NE 23:24:16 11° NE 23:24:46 10° NE
Cosmos 1954 Rocket 3.9 23:27:14 75° S 23:27:41 85° ESE 23:33:01 10° NNE
ISS -0.7 23:35:41 17° NNE 23:35:41 17° NNE 23:36:45 10° NE
Cosmos 2279 Rocket 4.4 23:29:29 10° NNW 23:35:35 56° W 23:37:19 43° SW
H-2A R/B 2.9 23:40:36 35° WSW 23:41:09 36° W 23:45:47 10° NNW
Cosmos 1656 Rocket 4.5 23:36:40 10° N 23:42:01 40° ENE 23:42:55 38° E
Cosmos 1741 Rocket 4.4 23:43:42 52° ENE 23:43:42 52° ENE 23:48:16 10° NNE
USA 238 DEB 3.7 23:42:40 58° SSE 23:43:50 68° ESE 23:50:52 10° NE
USA 238 3.7 23:42:48 58° SSE 23:43:56 67° ESE 23:50:57 10° NE
Atlas Centaur 2 3.5 23:37:06 10° WSW 23:43:36 41° SSW 23:43:36 41° SSW
Cosmos 1470 4.3 23:44:09 10° N 23:46:34 30° NE 23:46:34 30° NE
Cosmos 1953 3.4 23:46:20 10° NNW 23:49:20 42° NW 23:49:20 42° NW
Cosmos 1932 4.3 23:50:52 60° SW 23:52:06 86° WNW 23:58:22 10° NNE
Cosmos 1805 4.4 23:50:09 10° NNW 23:52:59 42° NW 23:52:59 42° NW
Cosmos 2084 4.3 23:50:11 10° NNW 23:53:33 45° NNE 23:53:33 45° NNE
Cosmos 2369 Rocket 3.4 23:49:34 10° NW 23:54:23 29° WSW 23:54:55 29° WSW
